Flag for U.S.A. Weather past 2 weeks in Fayetteville, North Carolina, U.S.A.

Now
30 °F

Clear.


Feels Like: 26 °F
Forecast: 24 / 57 °F
Wind: 3 mph from Northeast

Location: Fayetteville Regional Airport

Current Time: Mar 6, 2015 at 9:18:05 PM

Latest Report: Mar 6, 2015 at 8:53 PM


Visibility: 10 mi

Pressure: 30.42 "Hg

Humidity: 59%

Dew point: 17 °F

Location of FayettevilleLocation

Historic Weather in Fayetteville — Graph

°F

Fayetteville temperature yesterday

Maximum temperature yesterday: 72 °F (at 1:53 PM)
Minimum temperature yesterday: 35 °F (at 11:53 PM)
Average temperature yesterday: 55 °F

Past Weeks' High & Low Weather Summary

 TemperatureHumidityPressure
High79 °F (Mar 4, 3:53 PM)100% (Mar 2, 1:53 AM)30.72 "Hg (Mar 2, 1:53 AM)
Low10 °F (Feb 20, 6:53 AM)22% (Feb 20, 4:53 PM)29.58 "Hg (Feb 26, 3:53 AM)
Average40 °F74%30.22 "Hg
* Reported Feb 19 7:53 PM — Mar 6 7:53 PM, Fayetteville, Weather by CustomWeather, © 2015

Note: Actual official high and low records may vary slightly from our data, if they occured in-between our weather recording intervals... More about our weather records

Advertising

Fayetteville weather history for previous 24 hours

 ConditionsComfort  
Time TempWeatherWind HumidityBarometerVisibility
7:53 PM
Fri, Mar 6
31 °FClear.3 mph59%30.42 "Hg10 mi
6:53 PM34 °FClear.5 mph46%30.41 "Hg10 mi
5:53 PM39 °FSunny.5 mph34%30.40 "Hg10 mi
4:53 PM41 °FSunny.6 mph30%30.39 "Hg10 mi
3:53 PM41 °FSunny.9 mph32%30.39 "Hg10 mi
2:53 PM40 °FSunny.6 mph33%30.40 "Hg10 mi
1:53 PM39 °FSunny.10 mph34%30.41 "Hg10 mi
12:53 PM37 °FSunny.7 mph36%30.45 "Hg10 mi
11:53 AM36 °FSunny.15 mph34%30.47 "Hg10 mi
10:53 AM34 °FSunny.12 mph44%30.48 "Hg10 mi
9:53 AM32 °FSunny.18 mph43%30.48 "Hg10 mi
8:53 AM30 °FSunny.21 mph47%30.48 "Hg10 mi
7:53 AM30 °FPartly sunny.12 mph59%30.46 "Hg10 mi
6:53 AM31 °FOvercast.18 mph69%30.42 "Hg10 mi
5:53 AM31 °FOvercast.18 mph69%30.41 "Hg10 mi
4:53 AM32 °FOvercast.15 mph69%30.37 "Hg10 mi
3:53 AM33 °FOvercast.18 mph72%30.34 "Hg10 mi
2:53 AM34 °FOvercast.13 mph79%30.33 "Hg10 mi
1:53 AM34 °FOvercast.13 mph79%30.32 "Hg10 mi
12:53 AM34 °FOvercast.16 mph79%30.30 "Hg10 mi
11:53 PM
Thu, Mar 5
35 °FOvercast.16 mph82%30.29 "Hg10 mi
11:03 PM36 °FMostly cloudy.17 mph85%30.31 "Hg10 mi
9:53 PM36 °FFog.14 mph92%30.29 "Hg5 mi
Weather by CustomWeather, © 2015

See weather overviewHow to use our weather pages